カタログに戻る

OPS 9442

DSCS 2-12

運用中軍事GEO
NORAD 11145·PAYLOAD·🇺🇸 United States

打ち上げ Dec 14, 1978 から Cape Canaveral Space Force Station

Loading…

TLE

最新Source: Space-Track

元期: Sep 14, 2026, 01:32 UTC

1 11145U 78113B   26257.06413003 -.00000127  00000-0  00000-0 0  9992
2 11145   8.0609 302.5078 0004848 207.8747 165.1067  0.98441074117946

AllMySatでOPS 9442をリアルタイム追跡

Download on the App Store